[[{"header":{"parameterUnit":"m.s-1","parameterCategory":1,"la1":30.2991,"la2":30.254,"lo1":-89.0895,"lo2":-89.0444,"dy":0.0017,"dx":0.0017,"nx":28,"ny":28,"refTime":"2024-02-19T03:00:00:Z","depth":0,"parameterNumber":2,"parameterNumberName":"U-component_of_WINDS"},"data":[0,0,0,0,0,0,0,0,0,0,0,0,0,0,0,0,0,0,0,0,0,0,0,0,0,0,0,0,0,0,0,0,0,0,0,0,0,0,0,0,0,0,0,0,0,0,0,0,0,0,0,0,0,0,0,0,0,0,-0.2586,-0.2587,0,-0.2648,-0.2649,-0.265,-0.2612,-0.261,-0.2608,-0.2606,-0.2674,-0.2677,-0.2681,0,0,0,0,0,0,0,0,0,0,0,0,0,-0.2438,-0.244,-0.2586,-0.2587,-0.2588,-0.2648,-0.2649,-0.265,-0.2612,-0.261,-0.2607,-0.2605,-0.2673,-0.2677,-0.2681,0,0,0,0,0,0,0,0,0,0,0,0,0,-0.2501,-0.2441,-0.2586,-0.2576,-0.2576,-0.2648,-0.2649,-0.265,-0.2612,-0.261,-0.2607,-0.2604,-0.2671,-0.2676,-0.2681,-0.2768,0,0,-0.2697,-0.27,0,0,0,0,0,0,0,0,-0.2498,-0.2507,-0.2577,-0.2577,-0.2577,-0.2619,-0.2621,-0.269,-0.2613,-0.2599,-0.2606,-0.2603,-0.2658,-0.2664,-0.2682,-0.2772,-0.2774,-0.2698,-0.2701,-0.2703,-0.2705,0,0,0,0,0,0,0,-0.2493,-0.2504,-0.2611,-0.2578,-0.2578,-0.2569,-0.2575,-0.2634,-0.2643,-0.26,-0.2597,-0.2605,-0.2658,-0.2677,-0.2683,-0.2775,-0.2698,-0.2702,-0.2706,-0.2708,-0.294,-0.2943,0,0,0,0,0,0,-0.2489,-0.25,-0.2609,-0.2613,-0.2529,-0.2574,-0.2581,-0.2608,-0.2642,-0.2645,-0.2607,-0.2603,-0.2669,-0.2677,-0.2686,-0.2791,-0.2703,-0.2708,-0.2711,-0.2937,-0.2941,-0.2944,0,0,0,0,0,0,-0.2486,-0.2499,-0.2606,-0.2556,-0.2569,-0.258,-0.2611,-0.2611,-0.2631,-0.2648,-0.2649,-0.2625,-0.2668,-0.2678,-0.2748,-0.2792,-0.2711,-0.2715,-0.2934,-0.2938,-0.2942,-0.3001,0,0,0,0,0,0,-0.2482,-0.2498,-0.2531,-0.2557,-0.2572,-0.2667,-0.2614,-0.2614,-0.2639,-0.2634,-0.2665,-0.2668,-0.2666,-0.274,-0.2753,-0.2798,-0.2719,-0.293,-0.2936,-0.2941,-0.2995,-0.3007,-0.3017,0,0,0,0,0,-0.2477,-0.2546,-0.2533,-0.2546,-0.2613,-0.267,-0.2678,-0.2674,-0.2643,-0.2676,-0.2687,-0.2667,-0.2785,-0.2748,-0.2762,-0.2809,-0.2927,-0.2934,-0.2941,-0.299,-0.3005,-0.3017,0,0,0,0,0,0,-0.2526,-0.2549,-0.2535,-0.2614,-0.264,-0.2663,-0.2705,-0.269,-0.2726,-0.272,-0.2714,-0.2722,-0.2795,-0.2808,-0.2767,-0.2895,-0.2851,-0.2861,-0.2884,-0.2898,-0.2909,-0.2905,-0.2724,0,0,0,0,0,-0.2546,-0.259,-0.2607,-0.2675,-0.2689,-0.2695,-0.272,-0.2714,-0.2741,-0.2753,-0.2769,-0.2797,-0.284,-0.2869,-0.291,-0.2996,-0.3003,-0.3035,-0.3046,-0.3055,-0.3065,-0.3112,-0.3127,-0.2966,-0.2966,-0.2966,0,0,-0.2588,-0.2606,-0.2634,-0.2686,-0.2705,-0.2752,-0.2705,-0.2756,-0.2791,-0.2761,-0.2828,-0.284,-0.2872,-0.295,-0.2985,-0.2964,-0.311,-0.3064,-0.3071,-0.3076,-0.312,-0.3136,-0.3149,-0.2971,-0.297,-0.2969,0,0,-0.2689,-0.2706,-0.2765,-0.2785,-0.2815,-0.2818,-0.2832,-0.2857,-0.2864,-0.2931,-0.291,-0.2951,-0.3026,-0.3049,-0.3071,-0.3179,-0.3162,-0.3192,-0.325,-0.3296,-0.3309,-0.332,-0.3361,-0.3375,-0.3201,-0.3201,-0.3201,0,-0.2738,-0.2806,-0.2798,-0.285,-0.2874,-0.2847,-0.2908,-0.2928,-0.297,-0.2988,-0.2962,-0.3055,-0.3074,-0.3158,-0.3184,-0.3202,-0.3219,-0.319,-0.3308,-0.3319,-0.3329,-0.3368,-0.3383,-0.3205,-0.3204,-0.3204,-0.3204,0,-0.2866,-0.2914,-0.2958,-0.2998,-0.3026,-0.3083,-0.3083,-0.3113,-0.3104,-0.3111,-0.3179,-0.3201,-0.3246,-0.3264,-0.3257,-0.3348,-0.3333,-0.3308,-0.3264,-0.3348,-0.3384,-0.3399,-0.321,-0.3209,-0.3208,-0.3207,0,0,-0.3002,-0.3035,-0.3052,-0.307,-0.31,-0.3137,-0.3192,-0.3235,-0.3261,-0.3291,-0.3338,-0.3401,-0.3377,-0.3402,-0.3396,-0.3436,-0.3522,-0.3406,-0.3407,-0.3429,-0.3625,-0.3646,-0.3663,-0.351,-0.3513,-0.3515,-0.3623,0,-0.3106,-0.3202,-0.3195,-0.3286,-0.333,-0.3304,-0.3352,-0.3376,-0.3383,-0.3423,-0.343,-0.3476,-0.344,-0.3455,-0.3493,-0.3504,-0.3562,-0.3496,-0.3556,-0.3558,-0.3551,-0.3681,-0.3703,-0.3805,-0.3637,-0.3639,-0.3641,0,-0.3241,-0.3274,-0.3369,-0.3392,-0.341,-0.3454,-0.3492,-0.3529,-0.3556,-0.3558,-0.3585,-0.3573,-0.3629,-0.3582,-0.366,-0.3615,-0.3639,-0.3648,-0.3652,-0.3659,-0.3607,-0.3695,-0.3837,-0.3853,-0.3663,-0.3661,-0.3659,0,-0.3334,-0.3401,-0.3467,-0.3483,-0.3511,-0.3542,-0.3556,-0.3579,-0.3605,-0.3639,-0.3656,-0.3696,-0.3719,-0.3751,-0.375,-0.3715,-0.383,-0.3782,-0.3835,-0.3835,-0.3863,-0.3861,-0.4013,-0.3874,-0.3874,-0.3873,-0.3873,0,-0.3452,-0.3512,-0.3509,-0.3549,-0.3615,-0.3607,-0.3672,-0.3682,-0.3704,-0.3747,-0.3726,-0.3767,-0.3762,-0.3803,-0.3803,-0.3869,-0.3879,-0.3883,-0.3883,-0.3886,-0.3886,-0.3904,-0.3898,-0.3877,-0.3877,-0.3876,-0.3875,0,-0.3568,-0.3568,-0.3638,-0.3658,-0.3664,-0.3712,-0.373,-0.3769,-0.3773,-0.3828,-0.384,-0.3847,-0.3894,-0.3896,-0.395,-0.395,-0.4031,-0.4021,-0.4022,-0.4021,-0.4075,-0.407,-0.4245,-0.4268,-0.4112,-0.4113,-0.4115,0,-0.3645,-0.369,-0.3714,-0.3741,-0.3756,-0.3799,-0.3825,-0.3818,-0.3846,-0.3879,-0.3915,-0.3959,-0.3996,-0.4073,-0.4083,-0.4125,-0.4118,-0.4176,-0.4124,-0.4127,-0.4121,-0.412,-0.4125,-0.4187,-0.4189,-0.419,-0.4191,0,-0.3782,-0.3779,-0.3817,-0.3855,-0.3886,-0.3916,-0.3943,-0.3967,-0.3962,-0.3995,-0.4043,-0.4071,-0.4125,-0.4171,-0.4211,-0.4226,-0.4209,-0.4207,-0.4222,-0.4228,-0.4227,-0.423,-0.4052,-0.4204,-0.4203,-0.4202,-0.4201,-0.4201,-0.3882,-0.3921,-0.3944,-0.3987,-0.4006,-0.4032,-0.407,-0.4078,-0.4117,-0.4161,-0.4154,-0.4207,-0.4233,-0.4285,-0.4302,-0.4345,-0.4325,-0.4346,-0.4352,-0.4358,-0.4364,-0.4218,-0.4352,-0.4351,-0.4351,-0.4351,-0.435,0,-0.402,-0.4033,-0.4072,-0.411,-0.4144,-0.4122,-0.4151,-0.4182,-0.4229,-0.4253,-0.4288,-0.4343,-0.4387,-0.44,-0.4443,-0.4474,-0.4468,-0.4486,-0.4485,-0.4489,-0.4379,-0.4363,-0.4491,-0.4491,-0.4491,-0.4491,-0.4491,-0.4491,-0.4095,-0.416,-0.4161,-0.4235,-0.4248,-0.4299,-0.4318,-0.4342,-0.4362,-0.4424,-0.4459,-0.4467,-0.4487,-0.4531,-0.457,-0.4573,-0.4591,-0.4613,-0.4613,-0.451,-0.4497,-0.4483,-0.4468,-0.4616,-0.4616,-0.472,-0.4721,-0.4721]},{"header":{"parameterUnit":"m.s-1","parameterCategory":1,"la1":30.2991,"la2":30.254,"lo1":-89.0895,"lo2":-89.0444,"dy":0.0017,"dx":0.0017,"nx":28,"ny":28,"refTime":"2024-02-19T03:00:00:Z","depth":0,"parameterNumber":3,"parameterNumberName":"V-component_of_WINDS"},"data":[0,0,0,0,0,0,0,0,0,0,0,0,0,0,0,0,0,0,0,0,0,0,0,0,0,0,0,0,0,0,0,0,0,0,0,0,0,0,0,0,0,0,0,0,0,0,0,0,0,0,0,0,0,0,0,0,0,0,-4.0853,-4.0854,0,-4.095,-4.0951,-4.0952,-4.0886,-4.0883,-4.088,-4.0877,-4.0974,-4.0979,-4.0984,0,0,0,0,0,0,0,0,0,0,0,0,0,-4.0607,-4.0612,-4.0853,-4.0854,-4.0855,-4.095,-4.0951,-4.0952,-4.0887,-4.0883,-4.0879,-4.0876,-4.0972,-4.0978,-4.0984,0,0,0,0,0,0,0,0,0,0,0,0,0,-4.071,-4.0613,-4.0853,-4.0834,-4.0833,-4.095,-4.0951,-4.0953,-4.0887,-4.0883,-4.0879,-4.0874,-4.097,-4.0977,-4.0985,-4.1124,0,0,-4.101,-4.1013,0,0,0,0,0,0,0,0,-4.0704,-4.0719,-4.0836,-4.0836,-4.0835,-4.0901,-4.09,-4.101,-4.0889,-4.0867,-4.0877,-4.0872,-4.0953,-4.0962,-4.099,-4.1129,-4.1133,-4.101,-4.1015,-4.1019,-4.1021,0,0,0,0,0,0,0,-4.0697,-4.0714,-4.0891,-4.0837,-4.0837,-4.082,-4.0829,-4.092,-4.0934,-4.0868,-4.0864,-4.0876,-4.0952,-4.0982,-4.0992,-4.1134,-4.101,-4.1017,-4.1022,-4.1025,-4.1391,-4.1395,0,0,0,0,0,0,-4.0692,-4.0709,-4.0888,-4.0894,-4.0757,-4.0828,-4.0838,-4.0885,-4.0933,-4.0936,-4.088,-4.0873,-4.0971,-4.0982,-4.0995,-4.116,-4.1019,-4.1026,-4.1031,-4.1386,-4.1392,-4.1397,0,0,0,0,0,0,-4.0687,-4.0709,-4.0884,-4.08,-4.0821,-4.0837,-4.0889,-4.0889,-4.0919,-4.0941,-4.0943,-4.0909,-4.0968,-4.0984,-4.1093,-4.1163,-4.103,-4.1037,-4.138,-4.1388,-4.1395,-4.1493,0,0,0,0,0,0,-4.068,-4.0707,-4.0761,-4.0802,-4.0826,-4.0982,-4.0893,-4.0894,-4.0934,-4.0925,-4.0969,-4.0972,-4.0966,-4.1081,-4.1101,-4.1171,-4.1043,-4.1374,-4.1384,-4.1392,-4.1483,-4.1502,-4.1519,0,0,0,0,0,-4.0672,-4.0785,-4.0764,-4.0786,-4.0894,-4.0986,-4.1,-4.0991,-4.094,-4.0993,-4.1007,-4.0971,-4.1152,-4.1093,-4.1114,-4.1188,-4.1369,-4.1381,-4.1392,-4.1475,-4.1499,-4.1518,0,0,0,0,0,0,-4.0751,-4.079,-4.0768,-4.0897,-4.0939,-4.0975,-4.1042,-4.1016,-4.1072,-4.1062,-4.1048,-4.1058,-4.1172,-4.1191,-4.1124,-4.1325,-4.1252,-4.1268,-4.1309,-4.1331,-4.1349,-4.1342,-4.105,0,0,0,0,0,-4.0783,-4.0856,-4.0885,-4.0997,-4.1019,-4.1027,-4.1067,-4.1057,-4.1099,-4.1116,-4.1138,-4.1179,-4.1245,-4.1289,-4.1351,-4.1485,-4.1493,-4.1547,-4.1565,-4.1579,-4.1593,-4.1664,-4.1688,-4.1433,-4.1433,-4.1433,0,0,-4.0851,-4.0881,-4.0928,-4.1013,-4.1045,-4.1119,-4.1043,-4.1125,-4.1179,-4.1128,-4.1232,-4.125,-4.1295,-4.1417,-4.1472,-4.1436,-4.1665,-4.1593,-4.1605,-4.1611,-4.1678,-4.1702,-4.1724,-4.1441,-4.144,-4.1438,0,0,-4.1013,-4.1043,-4.1139,-4.1172,-4.122,-4.1225,-4.1248,-4.1288,-4.1298,-4.1403,-4.1366,-4.143,-4.1544,-4.1578,-4.161,-4.1784,-4.1751,-4.1804,-4.1897,-4.1967,-4.1987,-4.2005,-4.2066,-4.2089,-4.1818,-4.1818,-4.1818,0,-4.1091,-4.1203,-4.1192,-4.1277,-4.1315,-4.1273,-4.1369,-4.1401,-4.1467,-4.1494,-4.1453,-4.1595,-4.1622,-4.1752,-4.1794,-4.1821,-4.1846,-4.1799,-4.1985,-4.2003,-4.2019,-4.2078,-4.2101,-4.1824,-4.1823,-4.1823,-4.1822,0,-4.1296,-4.1374,-4.1445,-4.1511,-4.1557,-4.1647,-4.1649,-4.1697,-4.1682,-4.1691,-4.1797,-4.1828,-4.1896,-4.1926,-4.1912,-4.2053,-4.2029,-4.1987,-4.1914,-4.205,-4.2105,-4.2127,-4.1833,-4.183,-4.1829,-4.1827,0,0,-4.1511,-4.1569,-4.1595,-4.1624,-4.1674,-4.1734,-4.1821,-4.1888,-4.1929,-4.1975,-4.2048,-4.2145,-4.2107,-4.2143,-4.2133,-4.2194,-4.2329,-4.2144,-4.2145,-4.2177,-4.2485,-4.2517,-4.2543,-4.2308,-4.2312,-4.2315,-4.2481,0,-4.1675,-4.1829,-4.1822,-4.1966,-4.2037,-4.1997,-4.2073,-4.2111,-4.2122,-4.2182,-4.2193,-4.2262,-4.2206,-4.2228,-4.2287,-4.23,-4.2391,-4.2288,-4.2374,-4.2377,-4.2364,-4.2571,-4.2605,-4.276,-4.2503,-4.2506,-4.2509,0,-4.1887,-4.1942,-4.2094,-4.2133,-4.2162,-4.2231,-4.2291,-4.235,-4.2392,-4.2395,-4.2436,-4.2415,-4.2502,-4.2426,-4.2546,-4.2476,-4.2511,-4.2522,-4.2528,-4.2536,-4.2452,-4.2584,-4.2809,-4.2833,-4.2543,-4.254,-4.2537,0,-4.2029,-4.214,-4.2245,-4.2271,-4.2319,-4.2368,-4.239,-4.2427,-4.2468,-4.252,-4.2546,-4.2607,-4.2641,-4.2688,-4.2684,-4.2629,-4.2805,-4.2729,-4.2808,-4.2809,-4.2847,-4.2845,-4.3081,-4.287,-4.287,-4.2869,-4.2869,0,-4.2213,-4.2307,-4.2309,-4.2374,-4.2477,-4.2467,-4.257,-4.2586,-4.262,-4.2686,-4.2654,-4.2717,-4.2707,-4.2769,-4.2766,-4.2865,-4.288,-4.2884,-4.2882,-4.2887,-4.2887,-4.291,-4.2899,-4.2875,-4.2874,-4.2873,-4.2872,0,-4.2389,-4.2394,-4.2506,-4.2542,-4.2553,-4.2628,-4.2658,-4.2718,-4.2725,-4.2809,-4.2828,-4.2839,-4.2911,-4.2911,-4.2992,-4.299,-4.3111,-4.3097,-4.3098,-4.3095,-4.3174,-4.3167,-4.3433,-4.3467,-4.3234,-4.3236,-4.3238,0,-4.2506,-4.2578,-4.2622,-4.2664,-4.269,-4.2759,-4.28,-4.2792,-4.2836,-4.2888,-4.2942,-4.3011,-4.3065,-4.3181,-4.3195,-4.3257,-4.3244,-4.3333,-4.3253,-4.3255,-4.3245,-4.3241,-4.3248,-4.3349,-4.3351,-4.3353,-4.3355,0,-4.2714,-4.2713,-4.2774,-4.2837,-4.2887,-4.2936,-4.298,-4.3016,-4.3013,-4.3064,-4.3137,-4.3179,-4.3262,-4.3331,-4.339,-4.3411,-4.3383,-4.338,-4.3402,-4.3408,-4.3405,-4.3407,-4.314,-4.3374,-4.3372,-4.3371,-4.337,-4.3369,-4.2864,-4.2926,-4.2967,-4.3036,-4.3068,-4.3111,-4.3169,-4.3184,-4.3245,-4.3313,-4.3304,-4.3385,-4.3424,-4.3501,-4.3527,-4.359,-4.3558,-4.359,-4.3598,-4.3606,-4.3614,-4.3395,-4.36,-4.36,-4.3599,-4.3599,-4.3598,0,-4.3071,-4.3095,-4.3158,-4.3222,-4.3276,-4.3245,-4.3293,-4.334,-4.3412,-4.3451,-4.3506,-4.3589,-4.3655,-4.3674,-4.3738,-4.3784,-4.3772,-4.3801,-4.3797,-4.3802,-4.3639,-4.3614,-4.3809,-4.3809,-4.3809,-4.3809,-4.3809,-4.3809,-4.3184,-4.3287,-4.329,-4.3408,-4.3431,-4.3511,-4.3541,-4.3579,-4.361,-4.3706,-4.376,-4.3773,-4.3804,-4.3869,-4.3927,-4.3931,-4.3956,-4.399,-4.3988,-4.3835,-4.3814,-4.3794,-4.377,-4.3995,-4.3995,-4.4146,-4.4148,-4.4149]}]]